FW2508 Weather Reports


time (UTC)temp
C
wind
direction
speed
KPH
gust
KPH
rain 1hr
cm
rain 24hr
cm
rain mn
cm
humidity
%
barometer
mb
20260505065559 8 131 4.8 12.9 0.00 0.00 0.00 88 1012.2
20260505065101 8 124 4.8 12.9 0.00 0.00 0.00 88 1012.1
20260505064609 8 145 4.8 8.0 0.00 0.00 0.00 88 1012.3
20260505064103 8 146 4.8 9.7 0.00 0.00 0.00 88 1012.3
20260505063559 8 130 4.8 9.7 0.00 0.00 0.00 88 1012.3
20260505063100 8 131 6.4 11.3 0.00 0.00 0.00 88 1012.3
20260505062559 8 96 6.4 11.3 0.00 0.00 0.00 88 1012.3
20260505062101 8 126 6.4 11.3 0.00 0.00 0.00 89 1012.3
20260505061602 8 114 6.4 12.9 0.00 0.00 0.00 89 1012.3
20260505061129 8 144 8.0 12.9 0.00 0.00 0.00 89 1012.3
20260505060558 8 130 6.4 11.3 0.00 0.00 0.00 90 1012.3
20260505055558 8 120 4.8 11.3 0.00 0.00 0.00 91 1012.3
20260505055059 8 149 4.8 9.7 0.00 0.00 0.00 92 1012.3
20260505054602 8 107 4.8 9.7 0.00 0.00 0.00 92 1012.3
20260505054103 8 131 1.6 6.4 0.00 0.00 0.00 92 1012.3
20260505053600 8 117 1.6 4.8 0.00 0.00 0.00 92 1012.1
20260505053107 8 122 1.6 8.0 0.00 0.00 0.00 93 1012.1
20260505052602 8 127 4.8 8.0 0.00 0.00 0.00 93 1012.2
20260505052103 8 142 3.2 6.4 0.00 0.00 0.00 92 1012.1
20260505051559 8 191 3.2 6.4 0.00 0.00 0.00 92 1012.1
20260505051059 8 183 4.8 6.4 0.00 0.00 0.00 92 1012.0
20260505050559 8 200 0.0 3.2 0.00 0.00 0.00 92 1012.0
20260505050103 8 0 0.0 6.4 0.00 0.00 0.00 92 1012.1
20260505041559 8 231 3.2 4.8 0.00 0.00 0.00 90 1012.1
20260505041059 9 231 3.2 4.8 0.00 0.00 0.00 89 1012.2
20260505040602 9 238 3.2 4.8 0.00 0.00 0.00 88 1012.2
20260505040106 9 0 0.0 0.0 0.00 0.00 0.00 88 1012.2
20260505035558 9 0 0.0 1.6 0.00 0.00 0.00 87 1012.2
20260505035058 9 0 0.0 1.6 0.00 0.00 0.00 87 1012.1
20260505034559 9 0 0.0 4.8 0.00 0.00 0.00 86 1012.0
20260505034059 10 236 0.0 4.8 0.00 0.00 0.00 87 1012.1
20260505033601 10 233 0.0 3.2 0.00 0.00 0.00 86 1011.9
20260505033100 10 284 0.0 1.6 0.00 0.00 0.00 85 1011.9
20260505032559 10 0 0.0 1.6 0.00 0.00 0.00 84 1011.9
20260505032059 10 330 0.0 1.6 0.00 0.00 0.00 83 1011.8
20260505031600 10 0 0.0 3.2 0.00 0.00 0.00 82 1011.8
20260505031059 10 0 0.0 3.2 0.00 0.00 0.00 82 1011.8
20260505030558 10 5 0.0 1.6 0.00 0.00 0.00 81 1011.6
20260505030104 10 0 0.0 3.2 0.00 0.00 0.00 82 1011.5
20260505025559 10 89 1.6 3.2 0.00 0.00 0.00 82 1011.3
20260505025059 10 88 0.0 3.2 0.00 0.00 0.00 82 1011.2
20260505024601 10 0 0.0 3.2 0.00 0.00 0.00 83 1011.1
20260505024102 10 89 0.0 3.2 0.00 0.00 0.00 83 1011.1
20260505023600 10 342 0.0 3.2 0.00 0.00 0.00 83 1011.1
20260505023109 10 342 0.0 1.6 0.00 0.00 0.00 82 1011.2
20260505022602 10 0 0.0 1.6 0.00 0.00 0.00 81 1011.0
20260505022100 10 0 0.0 1.6 0.00 0.00 0.00 79 1011.0
20260505021602 10 0 0.0 0.0 0.00 0.00 0.00 78 1011.2
20260505021058 11 0 0.0 0.0 0.00 0.00 0.00 77 1011.2
20260505020558 11 0 0.0 1.6 0.00 0.00 0.00 77 1011.2
20260505015558 11 0 0.0 3.2 0.00 0.00 0.00 74 1011.2
20260505015102 11 261 0.0 3.2 0.00 0.00 0.00 72 1011.1
20260505014601 12 266 0.0 11.3 0.00 0.00 0.00 71 1011.0
20260505014058 12 281 4.8 11.3 0.00 0.00 0.00 68 1010.9
20260505013557 13 290 1.6 6.4 0.00 0.00 0.00 63 1010.9
20260505013058 13 290 0.0 6.4 0.00 0.00 0.00 59 1010.7
20260505012600 13 290 1.6 8.0 0.00 0.00 0.00 54 1010.6
20260505012058 13 312 3.2 8.0 0.00 0.00 0.00 54 1010.3
20260505011600 13 318 4.8 11.3 0.00 0.00 0.00 54 1010.3
20260505011058 14 316 6.4 11.3 0.00 0.00 0.00 53 1010.2
20260505010559 14 299 4.8 8.0 0.00 0.00 0.00 52 1010.1
20260505010105 14 298 3.2 11.3 0.00 0.00 0.00 53 1009.9
20260505005558 14 304 4.8 17.7 0.00 0.00 0.00 55 1009.7
20260505005058 14 322 3.2 19.3 0.00 0.00 0.00 55 1009.7
20260505004559 14 6 12.9 19.3 0.00 0.00 0.00 54 1009.7
20260505004058 14 23 12.9 19.3 0.00 0.00 0.00 55 1009.6
20260505003601 14 16 11.3 17.7 0.00 0.00 0.00 55 1009.8
20260505003106 14 352 8.0 17.7 0.00 0.00 0.00 54 1009.7
20260505002601 15 290 4.8 14.5 0.00 0.00 0.00 50 1009.8
20260505002100 15 300 4.8 14.5 0.00 0.00 0.00 50 1009.7
20260505001601 15 349 8.0 12.9 0.00 0.00 0.00 50 1009.7
20260505001057 14 314 3.2 9.7 0.00 0.00 0.00 52 1009.8
20260505000557 14 298 4.8 20.9 0.00 0.00 0.00 52 1009.8
20260505000113 15 314 8.0 20.9 0.00 0.00 0.00 51 1009.8
20260504235557 15 20 6.4 16.1 0.00 0.00 0.00 51 1009.9
20260504235100 15 297 8.0 16.1 0.00 0.00 0.00 50 1009.9
20260504234558 15 292 1.6 22.5 0.00 0.00 0.00 46 1009.7
20260504234057 15 295 6.4 22.5 0.00 0.00 0.00 47 1009.8
20260504233558 16 352 9.7 22.5 0.00 0.00 0.00 44 1009.9
20260504233106 16 276 3.2 20.9 0.00 0.00 0.00 43 1009.7
20260504232558 17 226 9.7 20.9 0.00 0.00 0.00 41 1009.6
20260504232058 17 295 6.4 9.7 0.00 0.00 0.00 36 1009.7
20260504231600 17 293 4.8 6.4 0.00 0.00 0.00 37 1009.6
20260504231057 17 305 4.8 14.5 0.00 0.00 0.00 37 1009.4
20260504230557 17 1 3.2 14.5 0.00 0.00 0.00 37 1009.3
20260504225602 17 307 11.3 20.9 0.00 0.00 0.00 36 1009.0
20260504225102 17 317 9.7 22.5 0.00 0.00 0.00 36 1008.9
20260504224601 17 2 14.5 24.1 0.00 0.00 0.00 36 1008.7
20260504224057 17 355 17.7 24.1 0.00 0.00 0.00 35 1008.6
20260504223557 17 4 16.1 25.7 0.00 0.00 0.00 35 1008.6
20260504223058 18 356 12.9 25.7 0.00 0.00 0.00 35 1008.6
20260504222559 18 3 12.9 32.2 0.00 0.00 0.00 33 1008.6
20260504222059 18 8 14.5 32.2 0.00 0.00 0.00 34 1008.6
20260504221600 18 311 12.9 29.0 0.00 0.00 0.00 33 1008.7
20260504221059 18 19 19.3 33.8 0.00 0.00 0.00 32 1008.6
20260504220600 18 35 22.5 33.8 0.00 0.00 0.00 32 1008.5
20260504220124 19 19 14.5 38.6 0.00 0.00 0.00 32 1008.5
20260504215600 20 355 8.0 38.6 0.00 0.00 0.00 31 1008.8
20260504215101 19 23 9.7 24.1 0.00 0.00 0.00 32 1008.9
20260504214559 18 330 12.9 40.2 0.00 0.00 0.00 33 1009.1
20260504214059 18 345 14.5 40.2 0.00 0.00 0.00 33 1009.4
20260504213559 19 356 20.9 40.2 0.00 0.00 0.00 32 1009.5
20260504213103 19 39 17.7 35.4 0.00 0.00 0.00 34 1009.4
20260504212600 18 330 9.7 19.3 0.00 0.00 0.00 38 1009.4
20260504212101 17 300 9.7 19.3 0.00 0.00 0.00 39 1009.5
20260504211558 17 308 11.3 17.7 0.00 0.00 0.00 38 1009.5
20260504211100 17 299 8.0 22.5 0.00 0.00 0.00 43 1009.6
20260504210558 16 297 8.0 38.6 0.00 0.00 0.00 44 1009.5
20260504210059 16 324 19.3 38.6 0.00 0.00 0.00 40 1009.5
20260504205559 17 1 12.9 25.7 0.00 0.00 0.00 43 1008.8
20260504205059 18 317 9.7 24.1 0.00 0.00 0.00 37 1008.7
20260504204559 19 300 12.9 25.7 0.00 0.00 0.00 28 1008.3
20260504204059 20 354 12.9 35.4 0.00 0.00 0.00 26 1008.2
20260504203600 20 312 16.1 35.4 0.00 0.00 0.00 26 1008.0
20260504203100 20 347 20.9 35.4 0.00 0.00 0.00 27 1007.9
20260504202559 20 359 16.1 32.2 0.00 0.00 0.00 26 1008.0
20260504202059 21 345 12.9 29.0 0.00 0.00 0.00 25 1007.9
20260504201601 22 356 8.0 16.1 0.00 0.00 0.00 23 1008.0
20260504201058 22 338 8.0 16.1 0.00 0.00 0.00 23 1008.1
20260504200558 22 293 6.4 16.1 0.00 0.00 0.00 22 1007.9
20260504195601 23 308 8.0 14.5 0.00 0.00 0.00 21 1007.9
20260504195100 23 316 8.0 14.5 0.00 0.00 0.00 21 1007.9
20260504194559 23 353 6.4 14.5 0.00 0.00 0.00 20 1007.9
20260504194100 23 314 9.7 16.1 0.00 0.00 0.00 21 1007.9
20260504193559 23 304 9.7 16.1 0.00 0.00 0.00 20 1007.8
20260504193100 23 306 8.0 14.5 0.00 0.00 0.00 18 1007.8
20260504192600 23 302 6.4 14.5 0.00 0.00 0.00 19 1007.8
20260504192059 23 293 9.7 16.1 0.00 0.00 0.00 19 1007.8
20260504191601 23 301 8.0 17.7 0.00 0.00 0.00 19 1007.8
20260504191101 23 288 9.7 19.3 0.00 0.00 0.00 18 1007.7
20260504190558 24 292 4.8 19.3 0.00 0.00 0.00 19 1007.7
20260504190112 24 325 9.7 19.3 0.00 0.00 0.00 18 1007.9
20260504185557 24 295 11.3 19.3 0.00 0.00 0.00 18 1007.9
20260504185057 23 288 9.7 19.3 0.00 0.00 0.00 19 1007.9
20260504184614 23 301 9.7 20.9 0.00 0.00 0.00 19 1007.9
20260504184058 23 309 11.3 20.9 0.00 0.00 0.00 18 1008.0
20260504183558 23 290 11.3 20.9 0.00 0.00 0.00 18 1008.0
20260504183104 23 297 8.0 20.9 0.00 0.00 0.00 18 1008.2
20260504182601 23 293 11.3 25.7 0.00 0.00 0.00 18 1008.1
20260504182057 24 288 11.3 25.7 0.00 0.00 0.00 19 1008.2
20260504181611 24 287 9.7 20.9 0.00 0.00 0.00 20 1008.2
20260504181102 24 288 11.3 20.9 0.00 0.00 0.00 19 1008.5
20260504180556 24 291 14.5 20.9 0.00 0.00 0.00 20 1008.5
20260504180103 23 300 11.3 19.3 0.00 0.00 0.00 20 1008.6
20260504175603 23 293 8.0 19.3 0.00 0.00 0.00 21 1008.7
20260504175100 23 288 9.7 19.3 0.00 0.00 0.00 20 1008.8
20260504174610 23 281 6.4 20.9 0.00 0.00 0.00 23 1008.9
20260504174100 23 281 8.0 20.9 0.00 0.00 0.00 25 1008.9
20260504173558 22 301 6.4 17.7 0.00 0.00 0.00 25 1009.0
20260504173104 22 266 11.3 20.9 0.00 0.00 0.00 25 1009.1
20260504172557 22 281 9.7 20.9 0.00 0.00 0.00 25 1009.1
20260504172057 21 301 11.3 20.9 0.00 0.00 0.00 25 1009.1
20260504171559 21 274 8.0 17.7 0.00 0.00 0.00 27 1009.1
20260504171101 21 288 8.0 16.1 0.00 0.00 0.00 26 1009.2
20260504170600 20 286 9.7 16.1 0.00 0.00 0.00 26 1009.2
20260504170109 21 282 9.7 14.5 0.00 0.00 0.00 26 1009.3
20260504151057 14 259 1.6 6.4 0.00 0.00 0.00 40 1009.7
20260504150603 14 257 1.6 6.4 0.00 0.00 0.00 42 1009.7
20260504141100 11 233 1.6 4.8 0.00 0.00 0.00 50 1009.7
20260504140557 11 242 1.6 4.8 0.00 0.00 0.00 50 1009.8
20260504130558 8 234 1.6 3.2 0.00 0.00 0.00 55 1009.8
20260504120107 5 0 0.0 1.6 0.00 0.00 0.00 64 1009.5
20260504110559 6 217 0.0 1.6 0.00 0.00 0.00 61 1009.9
20260504100559 5 224 1.6 3.2 0.00 0.00 0.00 60 1010.2
20260504100103 6 216 1.6 3.2 0.00 0.00 0.00 59 1010.1
20260504081556 6 227 1.6 3.2 0.00 0.00 0.00 58 1011.0
20260504081059 6 288 0.0 1.6 0.00 0.00 0.00 59 1010.9
20260504080557 5 0 0.0 0.0 0.00 0.00 0.00 59 1010.9